Location: Cheyres
(46.8153°N, 6.7877°E)
Time: 15:26:19
(UTC+00:00)

Cosmos 1328 Rocket - Pass Details

Date: 27 September 2021
Orbit: 601 x 627 km, 82.5° (Epoch: 21 October)

Event Time Altitude Azimuth Distance (km) Brightness Sun altitude
Exits shadow 02:03:02 24° 58° (ENE) 1,257 5.7 -33.2°
Drops below altitude 10° 02:05:27 10° 30° (NNE) 1,959 6.9 -32.8°
Sets 02:07:52 0° 19° (NNE) 2,865 7.8 -32.5°
